Location: Newark
(45.9456°N, 15.4064°E)
Time: 13:17:37
(UTC+00:00)

Vanguard 3 - Pass Details

Date: 29 January 2020
Orbit: 508 x 3263 km, 33.3° (Epoch: 24 February)

Event Time Altitude Azimuth Distance (km) Brightness Sun altitude
Rises 13:07:20 0° 201° (SSW) 6,091 13.1 20.9°
Reaches altitude 10° 13:11:58 10° 190° (S) 5,441 12.9 20.5°
Maximum altitude 13:25:11 28° 140° (SE) 4,759 11.4 19.3°
Drops below altitude 10° 13:39:54 10° 92° (E) 6,128 11.3 17.8°
Sets 13:45:29 0° 83° (E) 6,975 11.5 17.2°
